Regional Weather Roundup
Issued by NWS Upton, NY

Current Version | Previous Version | Graphics & Text | Print | Product List | Glossary Off
Versions: 1 2 3 4 5 6 7 8 9 10 11 12 13 14 15 16 17 18 19 20 21 22 23 24 25 26 27

000
ASUS41 KOKX 152305
RWROKX

REGIONAL WEATHER ROUNDUP
NATIONAL WEATHER SERVICE NEW YORK NY
700 PM EDT TUE APR 15 2014

NOTE: "FAIR" INDICATES FEW OR NO CLOUDS BELOW 12,000 FEET WITH NO
SIGNIFICANT WEATHER AND/OR OBSTRUCTIONS TO VISIBILITY.

NYZ071-072-176-178-NJZ106-104-160000-
NEW YORK CITY METRO AREA


CITY           SKY/WX    TMP DP  RH WIND       PRES   REMARKS
CENTRAL PARK   LGT RAIN  48  44  86 N10       29.69R
LAGUARDIA APRT RAIN      47  41  80 NW23G29   29.67R
KENNEDY INTL   LGT RAIN  51  46  83 NW23G29   29.65R
NEWARK/LIBERTY LGT RAIN  48  43  82 NW17G24   29.68R
TETERBORO      LGT RAIN  48  41  76 NW23G31   29.67R
$$

NYZ177-179-078>081-160000-
LONG ISLAND NEW YORK

CITY           SKY/WX    TMP DP  RH WIND       PRES   REMARKS
FARMINGDALE    LGT RAIN  52  50  93 NW18G24   29.63R
ISLIP          LGT RAIN  57  54  89 SW21G31   29.60R VSB 1
SHIRLEY        LGT RAIN  55  54  96 S18G26    29.60F FOG
WESTHAMPTON    LGT RAIN  56  54  93 S17G33    29.60F FOG
MONTAUK POINT    N/A     55  53  93 S12G23    29.64F
$$

NYZ052-065-067-160000-
HUDSON VALLEY

CITY           SKY/WX    TMP DP  RH WIND       PRES   REMARKS
WHITE PLAINS   LGT RAIN  47  44  90 NW23G33   29.65R FOG
NEWBURGH       LGT RAIN  45  43  93 NW12      29.70R FOG
MONTGOMERY     RAIN      44  38  79 NW16G24   29.70R
POUGHKEEPSIE   LGT RAIN  46  43  89 N12G20    29.70R FOG
ALBANY         LGTSLEET  35  30  82 NW15G26   29.78S WCI  25
$$

NJZ001-105-106-008-010-013-015-019>022-104-160000-
NEW JERSEY

CITY           SKY/WX    TMP DP  RH WIND       PRES   REMARKS
NEWARK/LIBERTY LGT RAIN  48  43  82 NW17G24   29.68R
TETERBORO      LGT RAIN  48  41  76 NW23G31   29.67R
CALDWELL       LGT RAIN  44  40  85 NW10G20   29.70R
MORRISTOWN     LGT RAIN  45  41  87 N6G16     29.71R
SOMERVILLE     NOT AVBL
LINDEN         LGT RAIN  48  43  83 N14G25    29.71R
SUSSEX         CLOUDY    42  34  73 MISG      29.75R
ANDOVER          N/A     40  37  89 N9        29.73R WCI  34
TRENTON        LGT RAIN  46  43  89 N10G26    29.71R
MILLVILLE      LGT RAIN  48  45  89 NW15G28   29.71R
ATLANTIC CITY  CLOUDY    52  50  93 NW18      29.67R
WRIGHTSTOWN    RAIN      48  46  93 NW15      29.68R
TOMS RIVER     CLOUDY    52  46  82 NW13G20   29.68R
BELMAR         CLOUDY    52  45  76 NW18G26   29.66R
$$

PAZ047>061-062-071-160000-
EASTERN PENNSYLVANIA

CITY           SKY/WX    TMP DP  RH WIND       PRES   REMARKS
PHILADELPHIA   LGT RAIN  47  42  83 NW15G26   29.75R
ALLENTOWN      LGT RAIN  42  36  79 NW13      29.79R
SCRANTON       LGT SNOW  35  32  88 NW16      29.80R FOG     WCI  25
$$

CTZ002-004>006-009-010-012-RIZ004-006-007-MAZ004-011-015-160000-
SOUTHERN NEW ENGLAND
 IN CT

CITY           SKY/WX    TMP DP  RH WIND       PRES   REMARKS
BRADLEY INTL   LGT RAIN  45  41  86 NW24G35   29.61R FOG
HARTFORD       LGT RAIN  56  52  86 MISG      29.60R FOG
DANBURY        LGT RAIN  47  45  93 N15G21    29.67R FOG
WTRBRY/OXFORD  CLOUDY    50  45  81 N14G20    29.63R
BRIDGEPORT     LGT RAIN  54  54 100 W5        29.59R
MERIDEN        LGT RAIN  58  56  93 S9        29.58R
NEW HAVEN      LGT RAIN  54  52  93 SW10G17   29.59S FOG
CHESTER        LGT RAIN  57  57 100 S16G29    29.59F
GROTON         LGT RAIN  52  52 100 S14       29.60F FOG
WILLIMANTIC    LGT RAIN  60  57  89 S14       29.58F

 IN RI

CITY           SKY/WX    TMP DP  RH WIND       PRES   REMARKS
PROVIDENCE     LGT RAIN  59  56  89 S24G32    29.63F
BLOCK ISLAND   CLOUDY    54  52  94 S23       29.64F
WESTERLY       LGT RAIN  53  53 100 S16       29.63F FOG

 IN MA

CITY           SKY/WX    TMP DP  RH WIND       PRES   REMARKS
BOSTON         LGT RAIN  60  56  86 S22G32    29.58F
WORCESTER      LGT RAIN  59  57  93 S22G29    29.56F
WESTFIELD      LGT RAIN  46  40  79 NW14      29.61R
PROVINCETOWN   CLOUDY    55  54  94 MISG      29.66S
NANTUCKET      CLOUDY    54  50  86 S24G33    29.72S FOG
$$

ANZ330-335-338-340-345-350-353-355-160000-
COASTAL MARINE OBSERVATIONS


STATION/POSITION TIME  SKY/WX   TEMP    WIND        PRES    VSBY  WAVE
                                AIR SEA DIR/SP/G                  HT/PER
                 (UTC)          (F)     (DEG/KT/KT) (MB)    (MI)  (FT/S)
NY HARB ENTRANCE 2300            48 43  300/ 19/ 25 1003.0
4S FIRE IS       2200               45                N/A          10/ 9
23SW MTP         2300            54 43  200/ 23/ 29 1002.8         10/ 9
HUDSON CANYON    2200            55 46  190/ 27/ 33 1003.8         12/10
EXECUTION ROCKS  2300            49 43  290/ 14/ 19   N/A
WESTERN LI SOUND 2300            49     280/ 14/ 17   N/A           1/ 3
CENTRAL LI SOUND 2200            52 41  200/ 17/ 23   N/A           3/ 4
EASTERN LI SOUND NOT AVBL
ROBBINS REEF     2300            47     320/ 19/ 24   N/A
$$


>>>>>>>>>>>>>>>>>>>>>>>>>>>> KEY <<<<<<<<<<<<<<<<<<<<<<<<<<<
>                                                          <
>     SKY/WX - SKY CONDITION/PRESENT WEATHER               <
>     TMP    - TEMPERATURE IN FAHRENHEIT                   <
>     DP     - DEWPOINT IN FAHRENHEIT                      <
>     RH     - RELATIVE HUMIDITY IN PERCENT                <
>     WIND   - DIRECTION AND SPEED IN MPH                  <
>     PRES   - MEAN SEA LEVEL PRESSURE IN INCHES OF HG     <
>     WCI    - WIND CHILL INDEX                            <
>     VSB    - VISIBILITY IN MILES                         <
>     HX     - HEAT INDEX                                  <
>     TC     - TEMPERATURE IN CELSIUS                      <
>     VRB    - VARIABLE WIND DIRECTION                     <
>                                                          <
>>>>>>>>>>>>>>>>>>>>>>>>>>>> KEY <<<<<<<<<<<<<<<<<<<<<<<<<<<





USA.gov is the U.S. government's official web portal to all federal, state and local government web resources and services.